Wind_Gust
9 18 17 18 17 15 14 14 16 17 16 18 19 21 23 24 24 23 22 13 9 19 21 20 21 21 23 22 24 22 19 18 17 18 20 20 19 15 15 17 20 19 29 11 14 15 19 21 23 22 23 23 21 22 24 25 24 24 26 24 23 22 20 21 21 22 21 22 21 19 21 21 21 20 17 19 18 17 17 18 19 18 19 19 18 18
15 19 18 17 18 17 14 13 13 17 16 18 19 21 24 21 26 26 24 23 12 17 23 23 23 25 24 23 26 23 19 19 19 19 19 20 21 19 15 17 20 26 14 10 12 14 17 21 21 22 24 23 26 25 25 25 25 24 23 23 23 22 22 22 22 23 22 20 23 22 22 20 20 20 20 20 19 19 18 18 18 18 19 19 19 19
18 20 19 15 14 13 11 13 13 15 19 18 21 20 22 24 21 24 23 13 13 16 25 23 27 28 26 24 24 22 19 18 19 18 21 20 21 21 18 20 21 20 17 12 13 17 19 20 22 24 24 25 25 25 26 24 24 24 24 23 22 22 23 23 22 21 22 20 19 21 20 21 20 18 18 18 18 18 18 18 18 18 18 19 20 20
19 14 20 18 13 14 14 13 14 16 18 21 20 19 21 22 24 26 22 15 14 19 26 24 30 32 27 24 24 19 17 20 19 19 21 19 20 21 19 17 20 23 21 18 17 17 18 20 23 24 25 26 25 25 24 25 25 25 24 22 22 23 21 21 22 20 19 19 18 17 16 16 17 17 15 15 15 17 18 18 17 17 18 19 19 21
23 23 15 14 13 14 18 16 17 19 20 17 17 21 24 19 22 26 26 24 25 26 22 23 28 29 23 18 18 16 16 17 19 16 18 17 15 13 15 13 16 20 19 19 15 15 16 20 24 25 25 25 26 25 25 26 26 24 24 24 23 23 22 21 21 21 19 19 18 19 16 15 15 14 16 13 17 17 17 18 19 19 19 20 20 20
23 23 14 16 15 14 15 20 18 16 22 19 18 21 21 21 24 24 24 25 26 28 18 13 30 25 17 13 19 22 20 19 16 16 19 21 15 14 16 19 21 19 15 17 16 18 18 21 22 23 24 25 25 26 24 24 25 23 25 25 24 21 21 21 21 22 21 20 20 19 21 21 19 19 19 20 20 20 21 23 19 19 20 20 19 20
19 12 11 14 17 17 18 20 16 13 21 20 22 16 20 23 24 25 25 24 25 24 17 14 27 34 19 24 20 18 17 18 18 14 17 17 15 17 17 19 22 23 22 13 12 15 18 20 23 24 25 26 25 24 23 24 23 24 25 25 25 24 23 21 21 23 22 21 21 22 22 20 22 22 20 18 18 19 20 20 20 19 20 20 20 20
11 10 11 10 16 19 19 23 14 17 25 27 18 22 21 24 25 24 25 24 29 20 22 23 26 30 27 22 17 11 16 16 15 17 17 17 17 18 19 20 19 22 19 18 14 15 17 20 23 26 26 25 25 24 24 24 24 25 25 25 25 23 23 22 23 25 24 22 21 20 20 21 21 21 19 19 17 17 17 18 18 19 19 20 20 20
10 17 14 18 19 25 24 21 21 16 25 30 24 22 24 25 24 24 25 25 25 21 27 24 18 23 22 19 12 14 17 12 14 16 17 18 20 20 20 22 21 20 19 17 17 14 16 20 22 22 23 22 23 24 26 26 25 25 24 26 24 24 23 23 24 25 25 23 24 23 23 22 21 20 19 18 17 18 18 17 16 18 18 19 20 21
13 12 18 18 21 25 22 24 23 20 25 19 22 25 27 24 23 23 26 24 23 21 27 25 14 23 22 14 18 13 14 11 16 19 17 19 19 21 23 21 21 20 18 17 16 14 15 17 19 19 19 21 23 23 23 23 24 25 25 26 25 24 24 24 24 25 24 23 22 22 22 22 21 21 20 19 21 19 19 21 20 19 19 19 20 20
22 14 11 15 18 21 23 25 22 18 21 21 23 27 27 24 26 19 21 24 25 22 30 15 9 14 25 19 14 17 16 19 18 19 20 23 22 21 19 20 23 23 21 20 17 15 15 16 21 22 23 23 21 21 24 24 24 25 25 26 26 25 24 23 25 25 25 24 23 22 22 23 23 22 22 22 22 22 21 22 21 20 21 20 20 19
20 19 14 16 14 19 19 24 19 12 14 17 26 26 27 26 23 21 23 17 22 26 16 14 10 14 24 18 21 16 16 18 16 19 21 24 23 23 21 22 21 21 20 19 18 18 20 20 19 20 23 22 22 22 23 22 23 25 25 27 26 24 24 25 26 25 26 27 25 22 23 24 24 24 24 25 24 23 24 22 22 22 21 20 18 20
20 16 15 12 14 25 25 21 16 16 14 17 21 22 23 29 28 25 20 26 27 29 19 11 13 19 20 21 24 27 19 21 18 15 18 20 21 20 20 20 20 20 21 20 18 16 19 24 24 21 22 21 22 25 24 25 25 24 25 26 27 26 25 26 26 26 25 23 23 23 23 23 23 23 22 22 22 21 22 23 22 22 23 22 21 20
18 13 19 16 14 26 20 23 23 21 20 25 21 20 24 27 24 22 22 25 27 22 14 12 14 29 27 31 18 17 20 19 17 14 13 15 18 19 20 20 21 21 19 20 19 17 18 21 21 21 21 21 21 20 23 24 23 23 24 25 26 26 25 22 23 24 24 24 24 23 24 24 24 24 24 22 22 19 20 20 21 22 23 24 24 24
15 16 20 23 21 20 20 19 18 21 22 25 17 20 20 26 32 24 23 25 24 29 30 26 28 26 20 12 14 14 16 14 14 15 12 13 15 16 18 20 21 20 19 20 20 20 18 19 19 19 18 18 19 21 22 22 22 21 23 25 24 23 22 22 23 23 24 24 24 25 24 24 23 23 24 22 22 21 20 19 20 22 22 22 23 24
11 21 18 19 14 13 24 21 16 16 28 18 15 17 24 22 14 26 25 29 33 36 32 23 31 18 25 13 13 16 16 16 15 18 17 18 17 19 20 21 21 20 21 20 19 19 19 18 16 15 17 18 17 18 18 18 20 20 21 22 23 22 23 23 23 24 25 25 25 24 23 25 25 24 22 21 20 21 19 20 20 19 19 19 19 19
14 21 27 34 25 14 22 23 17 14 20 17 23 28 22 18 19 25 24 25 16 26 38 22 29 25 21 24 16 15 14 16 18 21 20 17 18 17 18 20 20 21 21 20 20 20 19 18 17 15 12 14 15 15 14 17 18 18 19 20 20 21 21 24 24 26 25 25 23 23 23 26 26 26 23 24 22 21 20 20 20 19 19 18 18 19
18 25 25 23 20 9 20 20 22 18 18 24 25 18 25 19 17 26 32 22 25 35 39 27 33 31 24 31 16 18 23 20 20 21 19 15 18 19 19 20 22 21 20 19 18 18 19 18 17 16 14 10 11 12 13 14 16 17 19 20 22 22 25 24 24 24 24 24 23 25 28 30 32 30 27 24 22 22 22 21 21 19 20 20 20 20
19 27 15 12 15 18 25 21 23 18 15 22 25 21 24 21 21 18 18 22 26 31 35 32 29 37 31 34 25 19 20 24 23 19 16 19 19 19 19 21 21 20 20 21 19 19 19 20 20 15 12 10 11 11 14 15 15 14 17 19 23 23 23 24 25 24 25 24 27 29 32 32 30 27 26 24 21 21 22 23 23 22 22 21 21 22
16 23 22 14 14 23 29 25 23 22 16 19 19 27 14 18 25 28 23 29 33 32 30 39 33 41 22 22 15 17 15 18 21 16 15 17 19 23 22 24 25 24 19 20 20 18 19 20 20 20 16 13 11 10 10 11 12 14 16 19 20 22 24 24 25 26 27 29 28 28 24 24 25 24 22 22 22 22 22 22 22 22 22 22 22 21
21 11 20 15 21 23 25 14 19 21 26 26 26 26 22 18 14 23 27 29 31 36 34 36 42 38 16 17 13 14 13 15 17 20 20 18 19 21 23 22 22 21 18 17 18 19 18 19 20 20 17 14 11 11 12 13 15 14 16 20 22 25 26 28 29 30 30 29 29 26 27 25 22 21 21 21 21 22 22 21 21 22 21 21 22 22
16 14 22 29 26 19 18 16 24 25 21 20 20 20 16 19 24 21 24 17 20 26 30 30 41 43 18 12 16 21 17 21 19 19 21 20 21 21 22 20 14 16 15 14 14 16 18 18 19 20 20 21 19 17 15 13 15 16 17 20 21 22 25 26 29 29 25 21 21 22 28 20 19 21 22 21 21 24 23 22 23 21 20 21 22 22
15 21 24 23 22 23 21 24 19 13 13 15 18 13 13 13 16 22 27 23 29 35 30 33 39 48 23 19 18 16 19 21 23 23 25 25 24 23 26 25 19 14 14 14 13 16 16 16 16 18 19 19 19 17 16 19 20 14 13 16 18 21 23 25 25 24 20 20 20 21 22 19 17 18 18 21 20 21 22 21 20 19 22 22 22 23
16 23 23 25 23 26 21 18 13 11 13 14 14 11 17 22 19 21 27 27 32 32 33 34 46 49 24 14 14 13 18 21 23 23 26 29 28 30 30 29 27 24 19 21 20 16 17 17 18 20 20 21 19 18 18 15 14 16 15 12 14 18 18 20 17 22 23 18 17 18 18 17 16 18 19 19 18 18 18 18 16 17 19 19 19 21
23 13 22 32 38 23 12 16 17 15 17 17 18 21 23 26 25 25 28 25 36 35 34 41 54 40 28 19 14 17 30 34 34 34 34 36 34 30 31 30 32 32 31 25 19 21 17 16 17 19 17 17 17 17 17 18 18 16 17 17 17 17 18 22 14 17 16 15 15 15 16 16 17 18 19 19 18 18 17 15 13 13 16 16 18 18
17 17 19 23 27 31 36 23 23 25 25 29 23 23 21 22 24 26 26 24 34 24 28 42 50 37 34 33 35 36 37 35 33 33 34 34 34 36 35 34 33 35 34 31 26 20 20 20 20 21 18 18 18 17 18 18 18 19 18 17 16 16 15 14 11 11 14 13 17 16 15 15 15 16 16 17 18 18 18 18 17 15 14 13 15 16
17 16 18 22 25 29 30 30 24 26 29 31 23 25 27 23 24 25 29 32 36 30 36 38 38 42 39 37 35 32 34 35 34 33 35 35 34 36 34 35 34 34 35 35 32 24 19 22 19 17 16 19 21 17 16 17 18 20 20 18 18 17 15 12 10 10 9 10 10 9 11 13 14 13 14 15 15 15 16 17 16 18 18 18 18 18
16 20 17 21 25 28 29 29 27 23 30 31 28 27 23 23 22 24 27 38 26 36 44 35 29 37 37 36 35 32 30 31 33 33 33 33 33 33 32 32 28 33 32 31 31 32 24 20 22 19 19 21 21 17 16 17 16 16 17 19 17 17 16 14 14 12 11 10 9 8 9 10 9 10 11 12 14 15 15 16 16 16 16 17 19 21
22 24 21 22 24 23 23 25 26 29 27 29 27 25 23 20 19 25 28 30 29 35 46 32 35 40 39 36 31 28 29 29 32 33 31 32 34 33 31 32 31 31 31 31 29 29 28 22 21 21 24 25 25 24 21 20 18 15 15 16 17 18 19 19 18 18 17 15 12 10 8 8 8 9 11 13 14 14 16 17 16 15 15 15 17 18
22 23 15 17 26 26 26 26 25 27 27 26 23 23 23 25 27 29 33 32 33 35 37 39 36 37 38 32 26 27 26 27 29 29 31 32 34 33 31 32 32 31 31 30 29 29 29 30 29 29 26 24 25 24 23 24 24 19 15 16 16 17 17 18 17 17 17 17 16 14 11 11 10 11 10 11 11 14 15 15 16 16 16 17 17 16
13 20 17 24 30 31 20 18 18 19 22 30 27 27 29 30 28 24 25 25 26 28 27 30 33 37 32 24 26 28 27 28 28 30 31 31 33 35 34 31 32 32 33 33 34 30 29 29 29 28 30 31 24 24 24 23 23 24 25 23 18 14 15 15 15 14 15 15 14 13 12 11 12 12 12 12 11 11 13 14 14 15 17 17 17 16
15 23 20 23 28 33 16 17 20 24 27 31 34 33 27 18 19 21 27 23 27 33 32 34 38 39 28 27 28 28 31 31 32 30 33 34 34 32 32 31 32 32 33 34 35 35 34 32 30 28 30 31 33 28 28 26 26 25 26 23 21 20 16 11 12 12 12 13 12 12 13 13 12 13 13 13 14 13 13 14 14 14 16 18 17 17
18 23 22 19 25 30 18 21 28 32 33 29 19 16 12 18 22 30 35 32 31 30 33 32 34 31 32 31 35 31 30 30 31 32 34 36 33 31 29 31 33 35 36 35 35 34 35 34 31 31 31 32 34 34 28 28 28 27 26 24 23 22 20 17 11 10 14 14 12 12 12 13 14 14 14 14 14 13 13 14 13 12 13 14 14 15
16 18 22 20 30 31 26 27 28 33 30 28 17 9 14 26 32 36 36 28 25 23 33 31 32 31 31 30 31 33 30 31 29 31 31 29 29 26 27 30 32 33 35 36 34 34 33 34 35 35 33 34 36 35 32 26 28 30 23 18 16 21 22 21 13 9 9 12 13 11 12 11 12 14 14 13 13 13 14 14 14 12 11 10 11 12
16 17 19 19 26 31 28 28 32 32 31 14 12 20 28 32 28 28 29 29 28 27 28 29 31 31 28 27 29 29 30 31 30 31 32 29 24 24 27 30 32 34 36 35 34 34 33 33 34 35 35 34 35 36 31 29 31 25 25 19 20 18 16 18 18 11 9 8 8 8 9 11 12 13 13 13 13 13 14 13 12 13 13 12 11 10
13 13 15 20 23 25 27 26 37 31 19 27 32 32 22 17 22 28 32 32 27 26 27 33 31 28 25 27 29 30 32 32 33 32 31 29 23 25 28 30 32 34 36 35 33 33 33 33 34 34 35 35 35 36 32 24 23 25 28 26 22 21 18 16 15 15 13 14 11 11 10 12 12 12 12 12 13 14 14 13 13 13 13 12 12 12
13 14 17 23 18 26 23 29 39 39 41 28 23 18 24 31 27 27 35 39 26 30 29 30 27 25 29 30 31 31 30 33 34 36 28 25 27 26 26 28 30 32 32 32 30 31 30 31 33 34 35 33 35 38 35 26 26 25 25 26 26 23 21 20 19 17 15 14 15 15 12 12 13 12 11 12 12 13 12 12 12 12 12 12 13 14
10 15 13 16 20 20 28 37 40 33 38 27 17 22 22 22 17 18 25 44 26 25 22 22 22 28 30 30 30 31 29 36 40 35 25 27 26 27 28 26 28 30 30 30 29 29 29 30 31 32 33 32 32 33 34 30 25 21 20 21 21 20 19 20 18 18 18 17 15 15 15 14 13 13 12 12 13 12 11 10 11 12 11 11 12 13
15 16 20 21 27 21 23 30 36 35 42 26 27 26 24 24 15 16 26 42 28 20 16 17 21 26 30 32 33 30 30 36 41 37 25 27 27 25 25 27 28 27 27 27 28 29 31 30 30 31 30 29 30 34 32 32 22 20 20 16 15 17 19 18 16 15 15 15 15 14 14 14 14 14 12 12 12 10 11 10 10 10 9 10 10 10
17 18 14 21 20 21 22 27 34 29 38 18 24 28 28 20 14 20 35 39 16 17 13 22 30 32 33 33 31 29 30 37 39 35 29 30 30 29 25 24 26 27 25 25 24 26 27 28 28 29 29 28 29 31 32 30 21 18 16 14 16 17 18 17 18 19 16 15 15 14 13 12 13 13 13 13 11 10 10 9 10 9 9 9 10 11
18 19 15 21 21 21 18 31 32 38 32 20 24 26 25 18 20 27 38 32 25 26 28 31 33 33 33 35 33 38 32 33 34 34 32 31 31 29 27 23 23 23 21 21 23 23 25 27 27 27 26 26 27 28 30 29 26 18 17 13 14 16 15 14 13 14 15 15 16 15 15 13 13 12 11 12 12 10 8 8 9 8 9 10 11 11
18 16 16 16 21 23 22 28 34 36 32 25 27 21 16 19 31 33 31 28 32 37 36 35 36 35 33 34 36 36 36 33 32 33 34 33 32 30 29 29 26 23 22 21 18 20 21 21 24 24 24 26 28 29 27 28 25 19 21 18 18 18 15 13 13 10 12 15 16 16 15 14 13 13 12 11 11 11 10 8 8 7 7 8 9 11
18 18 19 19 22 24 22 26 28 32 17 11 13 22 18 24 32 31 37 37 33 36 39 38 36 35 34 37 35 37 38 37 35 35 34 33 33 32 30 29 28 26 25 20 19 19 18 18 21 23 23 25 26 27 27 26 26 21 20 21 18 18 16 14 12 13 14 15 17 16 16 15 15 15 15 13 13 12 11 10 9 9 8 7 7 7
13 18 22 19 13 27 29 30 30 24 21 19 26 34 28 31 36 38 40 45 40 39 39 43 41 39 37 39 41 41 39 39 39 37 36 34 33 30 30 30 29 29 27 22 19 17 14 15 18 19 19 21 21 24 28 25 25 23 25 24 20 18 18 16 17 14 12 12 13 13 14 15 17 17 15 14 14 13 11 11 11 10 9 8 9 10
15 19 16 24 18 23 32 33 34 30 31 33 30 34 37 36 35 37 40 44 46 44 38 42 40 40 39 40 42 42 44 40 40 38 38 36 34 33 32 31 29 28 27 25 22 17 14 16 17 19 21 23 20 20 21 23 24 25 25 23 19 20 19 17 14 11 11 12 13 13 14 15 16 16 16 16 16 15 15 13 13 12 11 11 11 11
17 18 18 26 36 31 40 41 42 40 38 36 33 34 39 39 38 36 38 43 40 40 39 41 40 41 40 38 43 43 44 41 42 41 39 39 37 34 32 32 31 28 27 25 22 21 17 15 15 15 19 24 22 19 17 17 19 22 24 24 18 19 17 15 13 12 14 14 12 13 14 15 14 14 15 15 15 15 15 14 15 14 13 13 13 13
18 17 22 27 24 26 43 16 26 32 34 36 39 37 35 35 38 36 38 38 40 41 42 40 42 42 41 43 42 44 44 42 43 43 39 38 38 34 32 30 29 28 27 25 23 22 21 18 17 16 16 19 20 20 19 17 17 19 22 21 20 17 17 15 14 13 14 14 16 14 15 15 16 15 13 14 16 17 16 15 15 15 14 14 15 15
17 10 18 26 29 33 46 38 41 38 36 36 39 39 37 37 38 37 39 38 42 43 43 43 42 43 40 41 39 41 44 42 41 41 41 39 36 35 33 31 29 29 26 24 22 20 19 19 19 18 15 16 18 17 20 22 21 20 20 21 21 20 18 16 14 14 15 16 16 17 17 17 11 14 18 18 17 17 16 16 15 16 16 16 16 17
23 18 27 21 38 37 34 35 35 40 36 34 35 32 34 38 44 44 42 42 41 43 44 43 43 41 40 42 41 42 45 44 40 39 40 39 36 34 32 31 29 27 27 25 23 21 22 20 19 17 16 18 18 16 16 19 22 21 19 18 19 19 16 14 14 16 16 16 18 17 17 17 18 19 19 18 18 19 19 18 17 17 17 15 16 16
17 25 27 26 33 33 30 35 32 49 54 39 33 32 35 37 40 44 45 45 43 43 44 42 43 40 40 39 39 40 41 41 39 38 38 38 35 32 30 31 29 29 28 25 24 22 20 20 20 18 18 19 19 17 17 18 18 18 20 19 21 19 16 14 15 15 17 18 18 19 19 19 19 19 19 20 21 21 21 10 14 15 19 19 13 17
18 28 22 26 29 41 38 35 32 38 45 43 42 42 42 41 42 45 45 44 44 42 40 39 40 39 37 37 36 38 39 39 38 37 37 35 34 32 30 28 30 30 30 26 26 23 22 21 20 17 17 19 17 19 19 17 18 16 15 16 18 19 19 17 15 16 19 19 20 19 20 20 21 21 21 21 21 21 21 22 18 20 19 16 13 16
Wind_Speed
1 7 6 6 5 6 6 5 7 9 8 9 10 11 11 11 12 10 9 5 1 8 10 10 11 11 12 11 9 9 8 7 6 7 9 9 8 6 5 7 7 7 5 1 1 3 8 11 12 12 12 12 12 12 14 15 14 14 13 13 14 11 11 10 10 10 10 10 10 9 10 10 9 9 7 8 8 7 7 8 8 8 7 8 8 7
5 7 7 5 5 5 6 5 6 8 8 9 9 11 10 10 11 10 11 9 4 7 10 13 13 14 13 13 11 10 10 8 8 10 10 11 9 9 4 8 9 7 5 2 2 3 8 10 12 12 12 14 15 14 15 15 14 14 14 14 12 12 11 11 10 9 8 9 9 9 9 8 8 8 8 8 7 7 7 8 8 8 8 9 8 7
7 8 6 4 6 5 4 5 6 7 10 9 8 8 9 10 9 11 13 1 2 5 10 12 15 15 15 14 14 12 10 7 8 9 10 10 11 10 8 8 9 9 6 4 2 5 7 12 14 13 13 14 15 15 15 14 14 14 13 12 12 11 12 10 10 9 9 9 7 9 8 9 7 7 7 6 6 7 7 8 8 8 8 9 8 9
7 2 5 6 6 6 6 5 6 8 8 8 8 7 8 10 10 9 9 3 6 5 11 13 16 14 15 14 14 10 8 8 10 10 10 9 9 9 7 6 7 10 9 6 4 5 7 10 12 13 13 14 13 13 13 14 14 12 12 12 12 11 11 10 11 10 9 9 9 9 8 7 6 6 5 5 7 7 8 8 8 7 8 9 8 9
10 12 8 7 6 6 9 8 9 7 7 8 7 9 10 9 10 12 11 12 14 15 13 12 12 11 11 7 4 6 7 8 9 6 6 6 2 3 5 4 6 8 8 8 6 4 7 10 12 12 12 13 14 14 14 14 13 10 14 14 13 11 11 10 11 11 9 9 8 8 8 6 6 5 5 2 5 7 7 7 8 8 8 9 8 9
11 3 7 7 6 7 7 9 8 6 8 8 8 9 8 11 14 14 14 14 10 11 2 4 8 8 7 5 8 8 8 6 6 6 4 5 6 4 5 6 6 8 7 7 6 5 7 9 10 11 13 13 12 13 13 13 13 12 13 14 14 11 11 11 12 12 10 9 9 9 8 8 8 8 8 9 9 8 9 9 8 9 9 9 9 9
7 4 4 7 9 9 10 9 8 4 8 8 6 8 10 13 14 15 14 12 10 9 2 2 11 9 7 12 10 8 7 8 4 4 4 3 5 7 7 8 9 10 9 6 4 5 5 7 8 9 11 12 11 11 11 11 13 12 14 14 14 13 12 11 12 13 10 10 10 11 10 9 9 10 8 8 9 8 8 8 9 9 10 10 10 9
3 1 4 4 8 9 9 10 6 4 10 10 8 13 12 14 15 14 14 12 11 10 10 12 10 10 9 8 7 4 7 7 2 1 5 3 8 9 9 10 10 10 10 9 6 4 3 3 5 7 9 11 10 9 11 11 12 14 14 15 15 12 12 12 12 13 12 11 11 11 11 10 9 10 9 9 8 8 8 8 8 8 7 10 10 9
3 8 6 10 10 10 10 10 12 8 9 11 13 12 14 15 14 14 12 11 11 9 10 9 11 8 7 7 3 6 8 3 3 5 5 6 10 10 10 11 11 10 9 9 8 6 3 2 5 6 7 9 9 10 11 10 11 13 13 14 15 13 13 12 14 13 13 11 11 11 11 11 10 10 9 9 8 9 9 9 8 8 7 4 7 10
4 5 9 10 9 10 11 13 13 12 11 10 13 15 14 14 13 12 11 10 10 8 12 12 5 7 7 4 7 4 5 2 5 8 7 10 7 9 10 12 12 10 9 8 8 7 4 1 3 5 6 8 9 9 10 10 11 12 13 14 16 14 12 13 14 13 14 12 12 11 12 13 11 10 9 9 10 10 9 10 10 10 8 7 8 8
11 6 3 5 7 10 12 14 12 10 12 12 13 15 13 12 12 8 8 9 9 8 13 4 0 4 8 7 5 6 5 6 7 7 8 11 11 10 10 11 11 11 11 9 8 8 6 4 0 3 6 7 7 6 8 9 10 11 12 15 16 15 12 13 14 15 14 13 12 12 13 14 14 13 12 11 11 10 9 9 10 9 9 9 7 6
9 10 6 6 6 8 10 12 10 5 7 9 9 11 11 10 10 9 9 7 5 9 4 4 2 5 10 6 7 7 8 8 6 7 10 12 12 11 11 10 10 11 10 9 9 9 7 4 3 1 4 6 7 7 8 9 11 12 13 14 16 15 13 13 14 14 14 13 13 13 14 15 14 13 11 13 13 12 13 11 10 9 7 8 8 5
9 4 6 5 6 14 11 10 6 6 5 5 9 9 9 10 8 7 7 9 10 11 8 2 5 8 8 8 12 15 4 8 8 5 6 8 11 11 10 11 10 10 11 9 8 7 7 6 4 3 3 4 7 8 10 11 10 11 12 15 16 16 14 13 13 14 15 14 13 13 13 14 12 13 13 11 10 11 11 10 10 11 10 9 7 8
6 2 6 4 7 10 7 7 7 7 8 11 8 7 9 9 8 8 8 8 9 10 3 2 5 11 12 15 7 4 8 8 5 3 5 6 8 9 10 10 11 10 10 10 9 8 7 6 6 5 4 4 5 8 10 11 11 11 11 14 16 15 14 12 14 14 15 15 14 14 13 12 11 11 11 9 9 9 9 10 11 11 11 11 12 12
4 4 6 7 3 7 5 5 6 9 9 10 7 8 8 9 9 8 8 9 10 11 13 16 12 8 9 2 3 6 7 6 6 6 4 4 7 8 9 10 11 11 10 9 9 10 9 7 6 5 6 5 5 7 9 10 11 11 12 12 14 14 14 14 14 13 15 13 14 14 13 12 11 11 10 9 9 10 10 9 10 11 10 9 10 11
3 7 6 5 6 6 6 6 7 7 12 7 4 6 10 8 5 8 9 12 14 14 13 9 10 7 9 4 3 6 7 8 7 6 4 6 8 10 10 10 10 9 9 9 9 9 10 11 8 5 5 5 6 7 8 10 10 10 11 11 12 12 14 14 15 14 15 14 13 14 13 13 12 10 10 10 10 10 9 10 9 9 9 9 8 8
4 6 6 13 15 6 6 9 7 5 7 5 7 10 7 5 7 9 11 14 9 9 13 7 11 8 8 12 7 6 5 7 6 7 8 9 9 9 9 10 10 9 9 8 8 9 10 9 10 8 6 5 5 6 7 9 10 11 10 10 12 13 13 15 14 15 15 14 13 13 12 12 12 12 13 12 12 12 11 10 9 9 9 9 8 7
7 10 15 12 10 1 7 11 13 10 7 8 9 6 12 9 7 8 11 7 8 13 12 11 16 14 10 8 5 8 7 3 7 8 6 6 8 9 9 10 11 10 9 8 8 8 9 10 10 9 7 4 5 4 4 6 9 10 8 7 10 12 13 12 12 12 12 12 11 11 13 13 13 13 13 12 12 12 11 11 10 10 9 10 10 9
6 9 6 4 7 8 11 11 12 7 7 9 10 10 8 5 8 6 4 8 9 12 11 14 16 16 13 14 10 8 2 5 7 6 5 7 8 9 10 12 12 11 9 8 8 8 9 9 11 8 6 5 2 3 5 6 6 7 7 9 11 13 12 14 13 13 11 12 10 11 12 13 14 14 13 12 12 11 12 12 11 11 11 10 11 11
6 8 7 4 5 9 12 10 9 5 5 9 10 11 5 4 9 11 5 11 11 14 13 18 17 14 8 8 4 5 4 6 7 7 7 8 10 11 11 12 13 13 10 9 8 8 8 8 9 11 10 7 5 5 5 5 5 8 8 10 12 12 13 13 14 12 14 15 14 12 12 13 13 13 12 12 12 11 12 12 11 11 11 11 11 10
7 2 8 5 10 11 8 1 5 8 11 10 9 10 8 6 4 7 9 10 11 12 13 13 16 12 4 7 5 6 6 7 8 10 10 8 9 11 13 11 11 11 9 7 6 5 4 4 5 8 9 7 5 6 6 6 7 7 9 12 14 14 14 14 14 16 15 12 13 14 14 13 13 12 11 12 12 12 11 11 11 11 10 10 10 10
4 4 9 12 10 7 7 5 11 14 10 8 7 8 5 7 7 7 9 6 7 8 9 10 15 16 3 2 6 11 8 11 10 10 11 11 12 12 12 12 8 8 8 6 5 4 3 2 2 2 3 4 8 9 10 7 9 8 9 11 12 12 11 12 14 14 12 10 11 11 12 12 10 9 11 12 11 10 10 10 10 11 11 11 11 11
4 6 9 8 8 9 11 12 10 6 5 7 7 4 1 3 5 7 11 10 12 14 15 15 15 21 9 9 8 8 9 11 13 13 14 14 15 14 14 15 11 8 7 6 5 4 4 4 3 3 3 3 4 4 2 10 11 7 6 3 4 8 8 10 11 10 9 9 9 11 12 11 9 9 9 9 9 11 11 10 10 10 11 11 10 10
10 6 8 10 10 13 5 7 5 3 5 6 4 0 5 5 8 8 10 12 13 15 14 13 17 16 11 7 6 5 10 12 11 14 16 16 14 16 18 18 18 15 11 9 5 5 4 3 2 2 2 3 3 3 1 3 2 7 8 5 3 4 5 7 6 9 11 9 5 7 9 9 9 10 11 11 9 9 10 8 7 8 9 10 10 10
5 3 8 12 9 6 3 6 6 6 5 6 6 7 12 13 14 13 14 11 14 17 19 17 22 14 13 10 4 8 17 21 20 19 19 20 19 18 18 18 17 19 19 16 12 8 6 6 4 2 2 2 2 3 3 1 2 3 2 1 3 4 4 3 1 6 6 5 8 9 8 8 9 10 10 10 9 10 10 8 5 4 7 8 9 9
6 6 6 8 11 12 9 7 8 9 11 11 11 12 9 11 13 11 10 9 13 11 17 15 17 16 17 18 22 22 22 19 18 20 20 19 19 20 18 19 19 19 20 20 17 11 9 7 5 3 3 2 2 1 2 2 2 2 4 5 7 7 7 1 4 4 6 6 9 9 8 8 9 9 10 9 9 10 10 9 9 7 5 5 6 8
4 6 7 9 10 12 12 14 13 14 13 12 13 15 15 14 14 12 12 13 13 12 15 18 19 21 22 22 20 18 16 20 20 18 18 18 20 19 19 18 18 17 19 22 20 15 10 10 10 6 5 5 4 1 2 3 4 4 5 7 7 7 7 5 3 1 3 3 4 3 5 6 6 6 7 7 7 8 8 9 9 10 9 8 8 8
5 7 8 12 15 15 16 17 15 13 16 17 16 15 14 13 12 13 11 14 14 15 19 13 18 20 20 22 20 17 17 17 18 18 18 18 18 18 18 18 19 18 17 16 17 20 16 11 13 10 6 7 6 7 3 6 2 5 5 6 5 3 5 5 6 5 4 4 2 1 2 2 2 4 5 6 7 7 7 7 7 8 8 9 10 10
7 8 11 12 14 13 14 15 16 15 14 15 16 14 12 10 11 14 16 17 17 14 19 19 22 25 22 17 13 15 15 15 16 17 17 18 19 19 18 19 19 18 17 17 17 16 17 14 11 12 14 10 3 4 7 7 4 3 4 6 5 6 7 7 8 8 8 7 5 4 1 2 2 3 5 6 7 7 8 9 8 7 7 7 8 8
6 7 6 7 14 15 15 16 14 14 13 14 13 13 14 14 17 18 19 19 19 21 22 22 20 18 17 7 10 11 13 13 14 16 17 18 20 20 18 18 20 18 18 18 17 16 17 18 17 18 17 15 13 9 10 9 8 8 5 3 6 6 7 8 9 9 9 9 8 6 4 1 3 3 3 4 5 7 8 8 8 8 8 9 9 8
3 5 9 13 13 12 12 10 10 10 12 15 16 17 18 18 17 15 15 15 16 16 17 19 21 21 15 5 12 14 15 15 15 18 18 18 19 21 21 19 18 19 19 20 21 20 16 16 17 17 18 19 15 12 9 8 8 8 8 9 7 3 4 5 6 7 7 7 6 6 5 3 1 4 4 4 4 5 6 7 7 7 8 8 8 9
5 9 9 9 11 12 6 9 11 13 16 19 20 21 15 11 11 11 11 12 15 18 20 22 21 17 13 15 16 16 17 18 19 18 18 17 20 19 19 19 20 20 19 20 20 20 21 20 19 17 18 19 20 17 15 13 11 10 12 13 11 10 9 6 2 2 3 5 4 3 2 2 2 1 4 4 4 5 5 7 6 7 7 7 8 7
6 7 6 7 10 12 9 11 16 19 18 14 8 6 3 9 12 17 20 20 18 18 17 16 16 15 17 17 18 17 17 17 17 16 16 18 20 19 16 16 18 20 22 22 19 21 21 21 19 19 19 19 18 19 16 15 14 12 9 10 12 11 11 10 6 4 3 2 5 2 2 3 3 4 2 3 3 2 4 4 5 5 6 6 6 7
7 7 7 7 9 12 15 14 14 14 11 9 6 1 6 13 19 21 19 16 15 12 13 15 16 17 18 17 17 18 17 16 15 15 14 14 15 15 11 13 16 18 19 21 21 20 20 19 19 19 20 21 22 21 19 15 13 15 12 7 7 10 11 11 8 5 4 3 2 2 0 2 2 3 4 3 2 3 3 3 4 4 3 3 4 5
6 6 7 6 7 11 13 14 11 12 8 4 1 8 17 20 17 17 18 18 17 17 18 18 17 17 16 15 15 17 17 18 17 17 18 16 14 8 8 12 14 15 15 17 20 21 20 20 20 21 22 21 21 21 18 15 16 14 11 8 9 8 6 6 11 6 4 3 2 2 3 1 3 4 4 3 3 2 3 4 3 3 4 4 3 4
5 4 4 6 7 8 10 8 10 9 9 16 19 18 13 9 12 18 20 20 15 15 16 17 18 17 14 15 16 16 18 19 19 18 18 17 8 5 5 8 10 11 13 13 16 18 19 18 19 20 21 20 20 20 19 13 12 11 13 12 11 10 8 7 7 7 5 4 3 2 1 1 2 3 4 4 3 3 4 4 3 2 2 2 4 4
6 5 6 7 5 9 8 11 14 16 19 16 9 6 9 13 13 13 16 20 14 16 17 16 16 14 13 15 16 17 17 18 18 18 17 12 5 4 5 8 7 8 9 11 12 15 16 16 17 18 19 20 20 20 20 14 14 14 12 12 11 12 11 9 8 8 8 8 7 6 5 3 2 2 3 4 4 4 4 5 4 3 1 2 2 2
2 5 4 5 4 5 9 11 10 10 12 8 9 10 11 13 10 9 11 21 15 13 12 12 12 12 15 16 17 18 17 17 18 15 13 3 5 7 8 8 8 8 8 8 9 11 13 14 15 17 16 20 20 20 19 19 14 10 9 9 8 8 8 8 8 10 10 9 8 7 6 5 4 3 3 2 3 3 3 4 4 4 2 2 2 2
6 6 9 8 9 8 9 10 9 9 11 11 10 11 12 12 8 8 10 18 11 6 7 8 9 13 16 18 19 17 13 15 17 16 12 5 9 9 10 9 10 10 10 9 8 9 11 10 14 15 16 17 19 20 21 20 15 10 8 7 7 7 8 9 8 6 7 8 8 7 7 6 6 4 4 4 3 2 3 3 4 4 3 2 2 2
8 7 5 8 8 7 8 9 11 6 7 7 12 12 12 10 5 8 12 10 5 8 4 11 18 19 20 20 18 15 14 17 17 16 15 17 17 18 15 12 11 11 10 9 8 8 6 6 8 14 15 15 16 18 21 20 12 4 4 6 7 9 10 10 10 10 8 7 8 7 6 5 6 5 5 5 4 2 2 2 3 3 3 1 1 2
5 5 5 8 8 8 9 10 9 9 9 7 10 10 11 10 9 10 14 11 13 14 16 17 20 20 19 20 17 17 16 16 18 19 19 19 19 18 16 14 12 12 12 10 9 7 5 5 4 6 11 12 13 15 18 16 15 7 2 3 6 6 5 6 7 7 7 7 6 7 7 6 6 6 5 4 4 4 2 2 3 3 2 2 3 2
6 5 6 6 8 8 7 9 10 10 10 7 6 6 8 7 9 12 11 14 18 22 21 20 22 21 19 20 18 18 18 19 20 20 20 20 20 18 17 17 15 14 11 11 9 8 6 5 5 6 5 9 11 12 14 16 14 10 9 6 2 3 3 3 1 3 4 7 8 7 8 7 6 6 5 5 5 5 4 3 1 1 0 2 2 2
5 2 5 5 5 6 6 8 9 10 2 5 6 11 9 10 11 13 18 22 19 21 24 24 21 21 21 21 22 23 24 23 22 22 21 21 20 20 18 17 17 15 15 11 10 10 8 5 4 5 3 5 10 11 13 15 17 13 11 9 9 8 7 6 5 4 4 6 8 9 9 8 8 7 6 6 6 5 4 3 3 2 1 1 1 0
5 4 6 5 2 7 8 8 7 4 6 9 13 13 12 15 18 21 20 23 22 20 21 22 23 22 22 23 24 25 24 24 24 24 23 21 20 19 18 18 17 16 16 13 10 8 8 6 5 5 4 3 5 9 13 14 15 14 14 14 10 9 7 6 7 7 6 6 7 7 7 8 9 9 7 7 7 6 5 5 4 3 3 2 2 2
4 7 3 7 5 5 8 11 13 13 15 15 15 18 21 22 20 21 22 23 24 22 21 21 22 23 24 24 25 26 25 25 25 24 23 22 21 20 19 19 18 16 16 15 13 10 8 7 7 6 5 1 3 3 9 12 14 17 16 13 11 11 10 6 6 5 4 5 6 7 7 8 8 8 8 8 8 7 6 6 6 5 4 4 4 3
6 8 7 9 11 13 18 20 21 19 17 18 17 18 21 23 23 21 21 21 20 23 20 19 22 24 24 23 22 22 23 25 27 25 24 23 22 21 20 19 19 17 16 15 13 10 9 8 7 7 6 3 2 1 5 8 11 14 15 14 10 11 10 7 7 6 6 5 4 5 6 7 7 7 7 7 7 7 6 6 7 6 5 5 4 4
7 8 9 10 10 11 11 2 9 16 20 21 21 21 20 19 19 18 19 20 22 23 23 24 25 25 24 26 26 27 27 24 26 26 24 22 22 21 19 18 17 16 16 15 12 11 10 10 8 8 7 6 4 2 4 7 8 11 13 12 11 9 9 8 6 6 5 6 6 7 7 8 7 6 6 7 7 7 7 6 6 6 6 6 5 5
3 3 7 12 14 13 17 19 22 22 19 19 18 18 19 20 21 20 19 20 22 24 24 25 25 26 24 23 23 22 27 26 24 24 23 22 20 19 19 18 17 17 16 14 12 12 11 11 11 10 8 7 6 4 3 7 10 11 11 12 12 11 9 8 6 5 5 6 7 7 8 8 7 6 7 8 7 7 7 7 6 6 6 6 5 5
8 8 8 9 13 16 19 20 18 23 22 15 14 15 17 19 23 26 24 24 24 25 27 27 25 22 18 18 20 21 24 27 25 24 24 22 21 19 18 17 17 16 16 15 13 12 11 11 11 9 9 8 6 8 7 6 9 12 11 10 11 10 9 7 6 6 7 7 7 7 7 7 8 8 8 8 7 7 7 7 7 6 6 5 5 5
7 9 10 12 14 14 12 14 18 18 20 18 18 19 20 22 24 26 25 25 25 25 24 26 26 23 21 22 22 22 24 22 24 23 23 21 21 20 19 18 16 17 16 15 13 12 12 12 12 11 10 9 7 8 9 8 8 10 11 10 11 11 9 7 6 7 7 7 7 8 8 8 8 8 8 8 8 8 8 8 10 9 8 8 6 9
7 9 8 10 11 15 18 19 17 18 21 22 23 26 26 24 23 25 26 26 26 25 24 23 24 25 23 22 21 21 21 21 24 21 21 19 19 19 18 17 16 15 16 15 14 13 13 12 12 10 10 9 9 9 9 9 10 10 9 9 9 10 11 9 7 6 6 6 7 8 9 9 8 8 9 9 9 9 10 9 8 16 16 14 10 14
Wind_Direction
332 260 253 259 283 329 338 309 295 302 301 296 285 280 284 289 283 279 272 329 331 293 283 296 297 295 292 289 299 305 320 296 290 318 315 310 311 322 359 1 10 360 352 36 235 244 188 182 175 172 168 172 176 174 173 174 169 167 171 177 181 184 181 182 184 185 187 194 201 199 196 194 191 200 191 191 195 194 193 195 184 185 192 197 195 191
242 258 260 292 326 343 337 326 301 283 274 276 287 285 285 292 290 301 298 291 199 280 293 290 292 291 294 294 297 307 291 301 321 315 310 314 317 317 30 349 358 357 0 49 197 228 193 187 179 175 172 174 178 182 178 180 171 167 170 177 179 181 178 185 185 184 188 198 201 196 199 201 193 193 195 197 189 193 193 192 188 191 189 194 195 194
234 253 282 335 6 329 299 291 280 282 289 282 274 290 292 280 300 297 285 297 243 252 286 298 295 292 291 291 289 287 285 295 300 310 305 306 307 310 346 341 342 347 1 7 280 215 204 193 184 182 178 179 183 178 179 179 171 165 171 177 181 181 181 182 180 182 192 195 205 211 207 202 199 199 203 191 199 194 196 189 187 191 195 195 195 195
264 222 51 13 331 312 286 262 277 275 268 269 278 273 289 314 305 307 310 310 203 258 297 297 295 288 283 274 270 259 270 296 302 298 298 300 303 322 329 344 344 347 353 349 329 237 208 199 190 191 184 179 181 178 178 179 175 168 171 177 181 180 182 181 184 188 189 191 195 207 214 206 207 198 193 168 207 197 199 198 195 192 197 200 200 197
296 314 344 325 303 299 304 300 275 278 287 282 271 283 286 305 313 307 309 311 305 284 257 278 277 277 280 271 262 283 290 280 278 284 288 290 21 356 322 359 6 350 347 333 325 254 212 201 197 198 193 178 181 180 177 179 178 171 171 174 180 176 181 183 179 184 182 179 193 203 204 205 196 200 170 159 204 198 203 207 198 202 201 204 204 202
263 8 344 302 309 292 289 286 279 294 289 289 282 282 309 311 303 304 302 304 300 297 178 285 302 292 313 296 270 280 284 279 304 296 300 304 90 337 355 25 7 357 358 334 320 299 227 209 199 199 202 191 182 181 178 178 179 169 167 173 178 176 179 181 180 181 177 175 182 186 197 198 202 199 193 198 202 193 196 204 202 202 202 203 207 204
313 20 332 328 316 308 289 287 286 293 294 296 312 350 322 312 305 298 297 297 286 296 63 232 296 297 291 290 294 305 302 290 260 266 317 359 51 19 13 7 6 355 356 350 337 307 249 217 208 201 208 205 190 181 176 173 179 173 163 171 179 179 180 183 178 177 175 176 183 186 192 204 212 217 214 204 204 202 200 198 199 205 204 201 199 211
159 113 302 293 301 301 295 278 74 326 307 283 318 320 322 307 303 302 301 289 282 279 276 270 257 286 298 281 295 307 273 264 250 327 323 8 35 22 5 2 5 357 356 348 350 337 300 228 216 210 207 213 203 182 182 178 178 181 167 167 179 182 181 179 176 178 179 177 181 182 190 199 211 216 214 200 200 200 198 197 192 202 205 210 200 200
317 317 327 317 315 299 289 323 325 317 293 299 309 317 309 306 299 295 292 291 289 300 291 289 278 262 276 302 176 238 259 233 129 332 333 29 16 358 356 357 0 358 356 348 351 350 338 219 211 212 210 217 210 198 189 180 183 182 176 168 177 183 182 178 177 180 181 182 179 182 190 196 206 212 209 203 201 197 194 202 194 201 208 224 226 202
306 3 324 316 300 295 323 320 317 307 291 301 320 307 293 282 271 275 284 287 287 275 282 286 320 292 283 320 301 103 281 264 352 338 324 25 14 358 356 352 357 357 354 352 357 1 14 321 208 205 208 217 218 200 192 190 186 186 182 178 178 184 184 179 177 182 182 181 182 186 192 196 200 204 206 204 204 207 195 194 190 197 199 204 216 212
302 292 311 287 329 338 320 311 304 299 291 305 291 288 289 292 287 273 270 280 281 271 274 295 256 283 304 302 328 303 321 337 340 319 335 341 355 2 2 355 355 357 352 352 355 6 21 30 319 187 214 210 205 191 195 187 189 187 186 181 179 184 184 181 180 183 182 184 185 191 193 198 200 201 205 203 204 202 194 198 202 197 196 201 209 213
308 274 186 78 7 348 334 310 290 272 298 293 293 297 298 281 282 262 246 214 271 288 45 38 41 303 293 299 292 318 40 61 19 352 342 339 348 355 352 355 355 357 351 352 355 1 14 17 6 292 232 218 190 180 196 201 194 192 194 186 181 184 185 181 182 181 182 187 189 194 196 200 201 199 203 206 206 204 201 197 200 197 190 200 199 201
294 39 45 122 50 12 347 320 324 312 246 280 311 306 312 305 286 289 303 292 287 297 304 344 348 284 248 308 297 287 25 64 45 12 341 340 343 346 343 351 358 356 353 354 355 353 358 353 343 322 273 225 208 205 202 197 197 199 200 193 185 185 186 180 178 183 182 187 192 197 199 201 202 204 205 207 213 207 206 198 196 195 191 192 191 199
315 79 42 19 209 19 346 344 348 300 342 316 310 323 301 304 312 293 287 282 278 263 291 307 299 277 289 277 269 53 63 59 63 57 12 353 338 336 341 354 355 355 360 354 347 352 351 350 335 331 303 257 234 221 212 198 198 201 205 197 192 186 181 175 182 181 183 190 194 200 200 201 202 207 207 210 215 213 211 203 196 199 197 193 197 197
308 220 94 345 2 1 1 2 345 297 304 300 312 277 310 286 293 297 293 294 298 301 297 297 292 268 281 55 80 89 104 100 69 37 17 0 341 351 352 357 356 355 355 358 358 344 338 335 338 320 307 289 248 232 218 209 203 205 208 203 198 185 180 177 179 181 184 189 197 201 202 201 202 203 203 206 208 211 212 206 202 205 202 199 196 197
249 282 327 17 349 310 336 350 320 308 288 250 300 300 259 290 30 272 309 300 295 298 292 272 261 263 269 348 141 138 110 86 64 58 37 31 14 7 6 356 351 349 351 354 349 346 341 335 327 323 304 287 263 238 225 214 210 207 212 208 201 189 181 178 179 180 185 192 199 202 202 204 204 204 201 204 205 207 208 206 208 207 208 204 199 196
316 257 37 322 312 281 319 336 312 313 284 1 322 279 337 14 286 290 276 264 265 275 267 267 262 244 259 256 189 145 175 102 80 57 44 30 20 17 7 359 351 344 353 351 350 347 339 335 329 334 329 303 271 251 223 215 211 213 214 212 201 191 180 180 182 183 187 193 199 203 205 204 205 205 205 203 201 202 201 202 203 206 206 205 198 192
311 303 295 278 297 132 332 315 296 262 261 283 272 337 343 292 299 277 285 300 275 277 280 279 277 280 280 283 141 204 213 24 39 36 36 25 14 11 8 357 355 349 350 355 355 354 346 341 332 330 334 337 347 315 259 224 221 215 205 203 203 182 186 183 186 188 189 193 202 210 211 208 208 209 208 205 201 200 200 198 198 199 201 202 198 193
345 295 315 169 281 313 328 305 288 227 219 277 288 346 303 291 251 236 253 273 285 276 286 277 283 278 277 274 245 220 271 351 357 11 3 7 9 3 359 359 356 351 349 353 0 356 355 351 336 323 320 325 290 254 252 221 216 218 195 190 195 186 190 192 189 189 186 188 199 212 216 211 210 210 206 204 203 199 204 201 197 197 199 201 200 199
307 295 298 155 245 346 309 289 278 300 219 271 279 265 239 262 265 268 259 284 287 284 289 287 294 281 282 311 54 61 360 7 339 335 351 349 353 355 353 352 352 349 350 351 357 0 356 2 2 354 338 307 276 240 233 242 211 192 192 187 197 196 195 195 193 190 193 193 189 199 211 212 212 209 207 204 202 201 204 202 200 199 200 202 201 201
314 281 274 294 315 306 285 97 315 320 301 294 283 287 263 238 311 297 284 264 266 274 272 289 286 284 345 58 35 2 358 342 341 330 328 334 341 344 346 345 346 345 343 344 349 347 10 15 30 14 1 353 316 280 250 232 227 200 193 195 197 193 195 195 197 197 204 197 191 195 205 206 207 203 206 206 203 204 203 202 201 199 200 204 205 203
310 312 296 295 289 274 282 323 302 292 292 290 297 293 327 312 304 287 282 267 263 266 273 274 272 278 80 35 353 321 345 327 327 323 320 322 322 329 330 331 337 340 329 328 322 317 320 335 351 115 98 46 32 360 325 279 233 207 200 196 197 202 199 196 203 210 202 196 195 199 206 199 188 204 205 203 200 209 208 206 203 201 202 205 205 204
6 293 270 278 280 290 291 298 294 295 268 281 284 281 44 296 299 277 279 281 291 279 292 278 279 267 295 318 301 305 317 327 327 322 313 311 311 316 316 315 316 303 305 309 295 296 292 304 317 340 354 10 69 110 325 325 332 295 244 197 297 256 215 224 229 230 215 209 197 200 205 193 188 197 203 202 205 207 211 205 204 204 205 208 206 205
316 259 291 288 293 280 254 271 219 208 216 216 200 206 312 334 336 305 286 292 284 280 273 273 260 272 284 303 304 321 315 311 306 302 306 303 302 305 313 307 303 308 307 295 281 262 263 232 191 163 123 88 77 65 141 255 301 324 339 346 243 259 292 290 314 343 324 321 302 234 209 188 185 194 200 205 202 205 211 211 214 211 214 213 208 204
321 6 338 310 308 310 211 174 184 178 256 280 311 319 323 314 305 297 294 283 271 263 268 269 269 275 275 271 240 289 300 306 317 335 341 338 335 336 330 319 317 311 305 297 283 271 251 241 219 173 133 114 112 128 133 159 241 204 206 270 310 314 296 295 314 240 247 256 260 241 212 197 191 190 195 202 202 203 199 204 215 229 232 224 216 212
281 296 316 309 314 313 312 312 332 333 319 329 311 300 301 305 303 307 283 285 273 280 276 266 273 281 289 295 300 307 325 348 357 351 348 344 346 343 341 339 335 329 321 305 293 269 261 247 233 192 191 184 139 84 100 115 103 33 73 22 352 1 346 253 238 210 242 213 206 217 213 202 193 190 195 197 203 201 198 192 191 190 202 229 224 209
287 289 272 273 282 284 295 305 311 308 295 290 300 299 296 296 293 282 283 273 268 282 271 269 281 291 291 298 303 322 5 345 346 346 344 341 339 339 337 338 337 331 324 320 303 292 268 262 258 235 198 177 163 71 357 10 18 40 59 63 34 4 341 346 315 73 249 238 259 241 213 209 201 188 185 191 200 205 203 203 201 199 200 205 218 216
291 289 278 279 271 274 287 290 297 296 288 290 293 294 298 292 286 280 267 269 293 296 271 271 282 284 292 299 313 345 350 348 342 346 341 339 336 332 334 334 332 331 332 333 340 341 329 326 314 304 252 195 177 146 221 269 336 27 37 56 62 359 6 13 358 9 349 330 359 223 175 176 186 187 197 191 199 198 192 193 206 207 205 202 203 212
316 290 284 275 274 282 290 292 290 285 278 284 289 291 290 294 283 272 270 276 279 266 278 294 295 294 298 315 345 337 348 341 337 339 339 334 332 331 334 335 331 331 335 337 338 336 338 342 322 295 287 290 266 204 209 198 159 84 18 10 29 44 24 9 12 11 6 351 357 4 45 115 154 167 173 190 187 192 192 196 205 209 202 201 210 211
302 272 311 308 297 291 289 285 286 287 289 287 286 292 291 282 277 277 279 280 276 278 286 294 299 299 302 352 331 341 336 337 336 336 335 337 335 330 319 331 332 333 336 335 330 335 340 338 333 327 318 285 272 245 204 185 178 170 155 35 3 18 17 13 10 11 1 356 350 344 337 96 129 157 152 175 186 188 190 189 195 204 206 199 198 206
283 290 340 312 300 293 289 292 289 288 295 293 289 286 280 276 277 281 283 284 292 293 295 294 294 293 288 313 318 324 324 324 327 324 327 330 330 328 321 319 326 333 337 337 332 321 321 332 332 328 322 314 292 255 232 226 215 180 156 162 162 134 43 23 10 4 358 349 341 343 339 345 130 145 150 149 164 172 180 195 197 205 206 205 198 196
296 286 300 297 296 291 298 293 294 294 297 295 287 277 277 285 289 298 295 302 298 294 297 294 289 288 318 330 318 317 318 317 317 317 317 321 323 326 321 316 317 321 326 337 339 334 325 322 331 329 324 316 306 280 247 251 233 192 171 167 160 147 142 133 146 9 3 338 332 324 354 359 328 120 118 132 147 164 167 170 185 200 207 205 202 203
285 291 294 300 292 285 303 309 308 310 299 286 284 67 4 292 294 298 298 298 293 301 296 290 293 312 314 314 309 309 317 314 313 318 318 313 312 312 315 320 324 326 329 324 333 338 331 329 327 327 325 318 307 296 271 237 236 232 197 170 155 156 147 143 149 152 147 256 299 340 7 49 30 22 38 103 119 115 140 146 157 179 195 204 211 205
265 269 279 288 282 293 306 309 309 298 292 308 75 305 317 301 303 301 304 309 304 297 287 296 297 302 303 307 307 308 308 309 312 306 301 297 301 304 316 319 322 320 319 324 325 332 332 328 327 326 326 321 312 304 285 260 234 227 211 182 166 160 152 143 138 149 147 164 253 304 316 112 110 87 72 48 80 136 119 124 117 136 163 163 199 214
266 271 276 278 274 288 304 303 295 279 282 33 297 282 299 310 313 306 301 291 288 290 284 285 292 298 304 302 297 298 299 302 302 298 294 294 295 293 309 323 320 321 320 323 322 323 328 330 328 326 326 325 316 310 294 260 240 221 199 180 177 178 166 145 135 136 140 158 105 335 331 38 82 89 86 81 74 62 106 108 118 140 137 145 162 185
259 268 288 278 271 286 290 293 284 270 335 308 295 297 303 293 298 307 298 288 288 292 295 292 292 295 301 298 295 299 303 301 295 289 287 289 274 231 302 307 307 315 322 321 317 317 325 332 329 327 325 325 320 321 305 275 257 224 211 197 188 179 170 159 142 139 148 154 160 157 262 358 63 97 104 103 104 106 104 106 102 112 129 144 149 157
253 273 264 283 291 278 283 282 278 300 296 288 293 326 329 321 321 315 305 296 302 291 286 283 287 295 295 295 301 302 303 301 294 292 289 280 213 200 253 285 279 292 294 304 310 313 319 325 328 329 326 326 329 325 326 293 256 237 217 199 188 184 181 181 170 164 170 168 165 164 159 144 108 63 81 104 116 110 106 106 100 92 94 137 153 169
250 272 310 299 275 298 293 291 292 297 292 306 355 346 336 320 311 312 302 290 289 278 278 285 291 290 294 298 300 304 305 299 292 290 307 276 209 237 242 249 254 258 264 283 299 305 312 318 324 333 332 330 326 328 324 320 258 221 208 201 188 180 175 178 176 176 175 169 166 156 158 156 147 147 111 91 91 99 105 108 107 96 83 94 110 109
248 269 274 269 277 278 275 276 276 277 272 296 327 327 320 317 333 322 299 284 297 310 310 292 277 285 295 300 300 301 296 288 286 291 312 198 232 261 270 262 254 250 249 252 275 297 308 317 323 325 334 330 329 329 326 324 286 223 194 173 169 174 184 181 170 173 163 154 152 161 161 156 147 144 127 115 103 99 99 99 100 107 123 117 114 105
256 259 271 273 271 268 273 270 273 269 278 303 308 319 331 322 337 317 289 280 339 329 269 272 292 303 300 295 294 287 280 281 285 294 306 306 303 296 290 280 261 254 255 255 253 267 278 293 317 323 330 332 328 326 323 323 315 280 180 165 171 182 176 173 173 173 173 168 160 161 152 164 155 161 153 138 134 110 85 85 85 84 81 53 90 92
280 279 262 260 267 268 267 270 279 272 267 288 304 298 295 320 307 272 265 288 324 316 311 305 297 295 294 292 289 284 278 280 287 293 295 294 293 291 287 283 275 258 257 254 249 242 249 264 274 320 324 329 330 330 321 321 326 322 341 176 172 160 161 163 176 176 175 174 172 166 169 173 176 175 171 155 150 144 137 94 79 63 54 60 62 39
265 259 248 243 251 261 277 279 273 283 294 301 276 300 313 296 262 263 295 320 313 305 302 299 295 292 290 286 285 283 285 288 288 287 288 288 290 293 289 283 283 288 264 246 233 218 228 239 275 281 324 334 335 328 322 322 324 337 340 339 30 58 35 14 313 210 211 189 185 185 182 182 183 185 184 181 174 172 167 154 151 109 76 25 35 36
265 257 255 244 269 274 256 267 282 279 132 137 308 285 264 256 274 300 307 299 298 296 297 295 292 291 289 287 285 284 286 286 286 288 289 289 288 287 287 284 283 287 292 274 248 215 211 228 239 269 321 358 341 333 320 324 325 331 336 335 347 353 346 329 318 300 257 215 215 198 192 189 189 189 192 192 191 193 191 180 195 203 202 198 210 262
272 264 259 258 254 278 269 245 237 243 297 314 316 298 301 291 300 301 300 298 299 300 299 298 296 295 293 289 288 288 287 287 288 287 287 286 286 285 285 284 280 286 290 285 264 246 202 221 218 244 262 41 7 340 322 325 328 328 328 319 325 337 333 321 300 281 250 225 225 222 209 198 190 201 203 195 194 199 207 205 215 228 242 228 251 254
177 215 292 292 288 267 267 275 280 290 294 300 300 295 294 298 296 295 295 296 298 298 302 296 297 301 301 299 296 292 289 286 286 286 286 287 287 286 285 284 285 287 288 287 280 259 221 227 225 222 244 201 68 4 318 312 315 318 313 309 324 319 318 316 299 281 253 226 210 214 220 224 221 212 209 202 199 202 204 211 211 230 237 242 244 253
274 272 272 272 267 266 268 265 274 278 283 292 295 297 297 297 300 299 295 293 292 294 294 294 298 295 291 289 291 291 290 291 288 286 284 285 285 285 285 283 280 282 284 284 282 272 257 246 222 228 233 226 186 214 286 297 305 308 303 301 301 295 287 287 298 305 302 297 280 249 235 228 224 229 225 220 216 214 217 215 211 217 227 231 240 247
257 252 257 263 277 295 283 291 276 291 302 302 300 298 294 292 298 306 306 303 297 296 296 291 286 285 290 293 286 283 280 283 285 284 283 282 283 284 283 280 281 282 284 282 282 285 274 268 253 233 219 212 207 208 296 293 292 289 284 288 290 280 275 285 292 296 304 302 293 277 265 260 257 246 226 217 232 240 232 224 220 219 225 234 236 238
252 66 282 271 276 267 276 288 291 296 297 300 298 296 299 306 302 299 296 295 294 293 290 288 288 288 287 284 284 286 284 279 278 282 282 281 280 281 282 282 281 283 281 280 283 282 276 267 263 261 246 216 189 173 229 289 289 279 276 283 291 299 300 297 302 299 298 295 288 284 280 273 250 243 257 258 247 235 233 231 231 233 233 237 238 245
310 306 279 302 289 284 284 287 299 307 297 283 284 297 301 303 301 300 301 300 296 292 291 289 286 285 280 272 277 276 279 280 275 275 277 278 279 277 278 279 282 281 282 283 281 280 279 273 266 257 244 236 197 180 180 226 271 286 293 288 288 291 290 289 287 290 284 281 282 276 272 271 274 273 272 267 260 254 250 251 241 235 238 224 245 239
278 271 292 298 290 290 293 310 322 316 313 313 302 300 303 301 301 299 299 296 294 292 291 291 292 291 287 282 276 276 276 276 274 272 273 274 273 274 275 276 280 281 280 281 279 276 276 273 268 257 247 239 216 196 191 197 225 261 275 287 298 296 280 271 271 268 267 275 279 278 273 268 268 272 271 270 269 267 261 232 215 240 252 264 196 184
266 287 294 286 289 292 302 305 308 301 293 292 298 304 307 307 302 299 297 297 296 297 298 295 296 295 291 286 282 276 273 272 273 273 273 271 271 271 272 273 274 278 280 279 278 276 274 274 271 261 247 239 224 217 207 200 209 222 242 259 262 273 271 259 253 255 265 273 272 275 277 276 277 276 274 272 271 271 271 274 210 199 212 217 211 185